User: anonymous   Login
Location: Équennes
(49.7375°N, 1.9622°E)
Time: 02:24:58
(UTC+00:00)
Language:

Cosmos 2227 Rocket - Orbit

View from above orbital plane
View from above orbital plane
View from above satellite
View from above satellite

Ground track
Ground track

The orbit data is extracted from the following two-line orbital elements,

1 22285U 92093B   23153.56348974 -.00000095  00000-0 -24427-4 0  9991
2 22285  71.0222 326.4178 0003046  20.0504 340.0738 14.15155120570091
Epoch (UTC): 02 June 2023 13:31:25
Eccentricity: 0.0003046
inclination: 71.0222°
perigee height: 839 km
apogee height: 844 km
right ascension of ascending node: 326.4178°
argument of perigee: 20.0504°
revolutions per day: 14.15155120
mean anomaly at epoch: 340.0738°
orbit number at epoch: 57009

The dashed part of the orbit path shows where the satellite is in the earth's shadow,  

DLR